Time[GMT],gps_lat[degrees_north](-3m),gps_lon[degrees_west](-3m),gps_2_lat[degrees_north](-3m),gps_2_lon[degrees_west](-3m)
2017-12-08 21:00,43.180034637,-70.426612854,43.18,-70.43
2017-12-08 22:00,,,,
2017-12-08 23:00,43.180099487,-70.426612854,43.18,-70.43
2017-12-09 00:00,43.180099487,-70.426582336,43.18,-70.43
2017-12-09 01:00,,,,
2017-12-09 02:00,43.180065155,-70.426582336,43.18,-70.43
2017-12-09 03:00,43.180099487,-70.426635742,43.18,-70.43
2017-12-09 04:00,43.180049896,-70.426651001,43.18,-70.43
2017-12-09 05:00,43.180084229,-70.426696777,43.18,-70.43
2017-12-09 06:00,43.180065155,-70.426750183,43.18,-70.43
2017-12-09 07:00,43.180049896,-70.426734924,43.18,-70.43
2017-12-09 08:00,43.180049896,-70.426765442,43.18,-70.43
2017-12-09 09:00,43.180065155,-70.426681519,43.18,-70.43
2017-12-09 10:00,43.180034637,-70.426635742,43.18,-70.43
2017-12-09 11:00,43.180015564,-70.426651001,43.18,-70.43
2017-12-09 12:00,43.180049896,-70.426651001,43.18,-70.43
2017-12-09 13:00,43.180000305,-70.426612854,43.18,-70.43
2017-12-09 14:00,43.180049896,-70.426666260,43.18,-70.43
2017-12-09 15:00,43.180049896,-70.426681519,43.18,-70.43
2017-12-09 16:00,43.180084229,-70.426719666,43.18,-70.43
2017-12-09 17:00,43.180034637,-70.426765442,43.18,-70.43
2017-12-09 18:00,43.180034637,-70.426750183,43.18,-70.43
2017-12-09 19:00,43.179916382,-70.426734924,43.18,-70.43
2017-12-09 20:00,43.179832458,-70.426750183,43.18,-70.43
2017-12-09 21:00,43.179748535,-70.426780701,43.18,-70.43
2017-12-09 22:00,,,,
2017-12-09 23:00,43.179698944,-70.426780701,43.18,-70.43
2017-12-10 00:00,43.179599762,-70.426780701,43.18,-70.43
2017-12-10 01:00,,,,
2017-12-10 02:00,43.179515839,-70.426849365,43.18,-70.43
2017-12-10 03:00,43.179550171,-70.426849365,43.18,-70.43
2017-12-10 05:00,43.179565430,-70.426948547,43.18,-70.43
2017-12-10 06:00,43.179584503,-70.426933289,43.18,-70.43
2017-12-10 07:00,43.179649353,-70.426918030,43.18,-70.43
2017-12-10 08:00,43.179683685,-70.426918030,43.18,-70.43
2017-12-10 09:00,43.179718018,-70.426765442,43.18,-70.43
2017-12-10 10:00,43.179782867,-70.426597595,43.18,-70.43
2017-12-10 11:00,43.179817200,-70.426551819,43.18,-70.43
2017-12-10 12:00,43.179851532,-70.426498413,43.18,-70.43
2017-12-10 13:00,43.179851532,-70.426452637,43.18,-70.43
2017-12-10 14:00,43.179817200,-70.426383972,43.18,-70.43
2017-12-10 15:00,43.179782867,-70.426414490,43.18,-70.43
2017-12-10 16:00,43.179832458,-70.426429749,43.18,-70.43
2017-12-10 17:00,43.179817200,-70.426483154,43.18,-70.43
2017-12-10 18:00,43.179832458,-70.426383972,43.18,-70.43
2017-12-10 19:00,43.179851532,-70.426429749,43.18,-70.43
2017-12-10 20:00,,,,
2017-12-10 21:00,43.179916382,-70.426551819,43.18,-70.43
2017-12-10 22:00,43.179931641,-70.426513672,43.18,-70.43
2017-12-10 23:00,43.179931641,-70.426513672,43.18,-70.43
2017-12-11 00:00,43.179931641,-70.426513672,43.18,-70.43
2017-12-11 01:00,43.179950714,-70.426467896,43.18,-70.43
2017-12-11 02:00,,,,
2017-12-11 03:00,,,,
2017-12-11 04:00,43.179950714,-70.426483154,43.18,-70.43
2017-12-11 05:00,43.179965973,-70.426498413,43.18,-70.43
2017-12-11 06:00,43.180000305,-70.426483154,43.18,-70.43
2017-12-11 07:00,43.179950714,-70.426483154,43.18,-70.43
2017-12-11 08:00,43.179901123,-70.426536560,43.18,-70.43
2017-12-11 09:00,43.179916382,-70.426513672,43.18,-70.43
2017-12-11 10:00,43.179931641,-70.426498413,43.18,-70.43
2017-12-11 11:00,43.179901123,-70.426513672,43.18,-70.43
2017-12-11 12:00,43.179901123,-70.426483154,43.18,-70.43
2017-12-11 13:00,43.179901123,-70.426483154,43.18,-70.43
2017-12-11 14:00,43.179931641,-70.426467896,43.18,-70.43
2017-12-11 15:00,43.179916382,-70.426452637,43.18,-70.43
2017-12-11 16:00,43.179882050,-70.426452637,43.18,-70.43
2017-12-11 17:00,43.179851532,-70.426513672,43.18,-70.43
2017-12-11 18:00,43.179851532,-70.426429749,43.18,-70.43
2017-12-11 19:00,,,,
2017-12-11 20:00,43.179767609,-70.426536560,43.18,-70.43
2017-12-11 21:00,43.179782867,-70.426597595,43.18,-70.43
2017-12-11 22:00,43.179866791,-70.426597595,43.18,-70.43
2017-12-11 23:00,43.179782867,-70.426597595,43.18,-70.43
2017-12-12 00:00,43.179718018,-70.426567078,43.18,-70.43
2017-12-12 01:00,43.179733276,-70.426582336,43.18,-70.43
2017-12-12 02:00,43.179733276,-70.426612854,43.18,-70.43
2017-12-12 03:00,43.179767609,-70.426612854,43.18,-70.43
2017-12-12 04:00,43.179767609,-70.426696777,43.18,-70.43
2017-12-12 05:00,43.179817200,-70.426750183,43.18,-70.43
2017-12-12 06:00,43.179866791,-70.426834106,43.18,-70.43
2017-12-12 07:00,43.179882050,-70.426849365,43.18,-70.43
2017-12-12 08:00,43.179866791,-70.426879883,43.18,-70.43
2017-12-12 09:00,43.179950714,-70.426933289,43.18,-70.43
2017-12-12 10:00,43.179950714,-70.426765442,43.18,-70.43
2017-12-12 11:00,43.179668427,-70.426864624,43.18,-70.43
2017-12-12 12:00,,,,
2017-12-12 13:00,43.179615021,-70.426902771,43.18,-70.43
2017-12-12 14:00,,,,
2017-12-12 15:00,43.179565430,-70.426834106,43.18,-70.43
2017-12-12 16:00,43.179599762,-70.426918030,43.18,-70.43
2017-12-12 17:00,,,,
2017-12-12 18:00,43.179931641,-70.426986694,43.18,-70.43
2017-12-12 19:00,43.180118561,-70.427169800,43.18,-70.43
2017-12-12 20:00,43.180118561,-70.427268982,43.18,-70.43
2017-12-12 21:00,43.180084229,-70.427368164,43.18,-70.43
2017-12-12 22:00,43.180118561,-70.427299500,43.18,-70.43
2017-12-12 23:00,43.180099487,-70.427253723,43.18,-70.43
2017-12-13 00:00,43.180034637,-70.427200317,43.18,-70.43
2017-12-13 01:00,43.179817200,-70.426803589,43.18,-70.43
2017-12-13 02:00,43.179748535,-70.426696777,43.18,-70.43
2017-12-13 03:00,43.179683685,-70.426719666,43.18,-70.43
2017-12-13 04:00,43.179668427,-70.426719666,43.18,-70.43
2017-12-13 05:00,43.179668427,-70.426696777,43.18,-70.43
2017-12-13 06:00,43.179698944,-70.426719666,43.18,-70.43
2017-12-13 07:00,43.179767609,-70.426651001,43.18,-70.43
2017-12-13 08:00,43.179748535,-70.426651001,43.18,-70.43
2017-12-13 09:00,,,,
2017-12-13 10:00,,,,
2017-12-13 11:00,43.179718018,-70.426635742,43.18,-70.43
2017-12-13 12:00,43.179767609,-70.426635742,43.18,-70.43
2017-12-13 13:00,,,,
2017-12-13 14:00,43.179748535,-70.426551819,43.18,-70.43
2017-12-13 15:00,43.179748535,-70.426483154,43.18,-70.43
2017-12-13 16:00,43.179718018,-70.426383972,43.18,-70.43
2017-12-13 17:00,43.179718018,-70.426399231,43.18,-70.43
2017-12-13 18:00,43.179718018,-70.426383972,43.18,-70.43
2017-12-13 19:00,43.179718018,-70.426231384,43.18,-70.43
2017-12-13 20:00,43.179782867,-70.426368713,43.18,-70.43
2017-12-13 21:00,43.179782867,-70.426368713,43.18,-70.43
2017-12-13 22:00,43.179832458,-70.426399231,43.18,-70.43
2017-12-15 14:00,,,,
2017-12-15 15:00,43.179832458,-70.426483154,43.18,-70.43
2017-12-15 16:00,43.179832458,-70.426498413,43.18,-70.43
2017-12-15 18:00,43.179851532,-70.426498413,43.18,-70.43
2017-12-15 19:00,43.180118561,-70.427017212,43.18,-70.43
2017-12-15 20:00,43.179882050,-70.426567078,43.18,-70.43
2017-12-15 21:00,43.179916382,-70.426582336,43.18,-70.43
2017-12-15 22:00,43.179882050,-70.426582336,43.18,-70.43
2017-12-15 23:00,43.179901123,-70.426597595,43.18,-70.43
2017-12-16 00:00,43.179866791,-70.426612854,43.18,-70.43
2017-12-16 01:00,43.179851532,-70.426666260,43.18,-70.43
2017-12-16 02:00,43.179851532,-70.426597595,43.18,-70.43
2017-12-16 03:00,43.179798126,-70.426536560,43.18,-70.43
2017-12-16 04:00,43.179767609,-70.426513672,43.18,-70.43
2017-12-16 05:00,43.179733276,-70.426452637,43.18,-70.43
2017-12-16 06:00,43.179767609,-70.426452637,43.18,-70.43
2017-12-16 07:00,43.179698944,-70.426498413,43.18,-70.43
2017-12-16 08:00,43.179668427,-70.426513672,43.18,-70.43
2017-12-16 09:00,43.179718018,-70.426513672,43.18,-70.43
2017-12-16 10:00,43.179782867,-70.426483154,43.18,-70.43
2017-12-16 11:00,43.179748535,-70.426498413,43.18,-70.43
2017-12-16 12:00,43.179782867,-70.426536560,43.18,-70.43
2017-12-16 13:00,43.179798126,-70.426498413,43.18,-70.43
2017-12-16 14:00,,,,
2017-12-16 15:00,,,,
2017-12-16 16:00,43.179782867,-70.426498413,43.18,-70.43
2017-12-16 17:00,43.179817200,-70.426483154,43.18,-70.43
2017-12-16 18:00,43.179798126,-70.426452637,43.18,-70.43
2017-12-16 19:00,43.179767609,-70.426399231,43.18,-70.43
2017-12-16 20:00,43.179733276,-70.426467896,43.18,-70.43
2017-12-16 21:00,43.179832458,-70.426483154,43.18,-70.43
2017-12-16 22:00,43.179733276,-70.426414490,43.18,-70.43
2017-12-16 23:00,43.179698944,-70.426383972,43.18,-70.43
2017-12-17 00:00,43.179698944,-70.426414490,43.18,-70.43
2017-12-17 02:00,43.179599762,-70.426498413,43.18,-70.43
2017-12-17 03:00,43.179649353,-70.426513672,43.18,-70.43
2017-12-17 04:00,43.179615021,-70.426551819,43.18,-70.43
2017-12-17 05:00,43.179634094,-70.426567078,43.18,-70.43
2017-12-17 06:00,43.179649353,-70.426582336,43.18,-70.43
2017-12-17 07:00,43.179634094,-70.426567078,43.18,-70.43
2017-12-17 08:00,43.179649353,-70.426597595,43.18,-70.43
2017-12-17 09:00,43.179718018,-70.426582336,43.18,-70.43
2017-12-17 10:00,43.179767609,-70.426567078,43.18,-70.43
2017-12-17 11:00,43.179733276,-70.426582336,43.18,-70.43
2017-12-17 12:00,43.179748535,-70.426567078,43.18,-70.43
2017-12-17 13:00,43.179733276,-70.426551819,43.18,-70.43
2017-12-17 14:00,43.179698944,-70.426582336,43.18,-70.43
2017-12-17 15:00,43.179718018,-70.426597595,43.18,-70.43
2017-12-17 16:00,43.179718018,-70.426612854,43.18,-70.43
2017-12-17 17:00,43.179698944,-70.426597595,43.18,-70.43
2017-12-17 18:00,43.179683685,-70.426551819,43.17,-70.42
2017-12-17 19:00,43.179683685,-70.426467896,43.18,-70.43
2017-12-17 20:00,43.179649353,-70.426513672,43.18,-70.43
2017-12-17 21:00,43.179683685,-70.426567078,43.18,-70.43
2017-12-17 22:00,43.179683685,-70.426513672,43.18,-70.43
2017-12-17 23:00,43.179718018,-70.426536560,43.18,-70.43
2017-12-18 00:00,43.179698944,-70.426567078,43.18,-70.43
2017-12-18 01:00,43.179698944,-70.426651001,43.18,-70.43
2017-12-18 02:00,43.179718018,-70.426666260,43.18,-70.43
2017-12-18 03:00,43.179683685,-70.426666260,43.18,-70.43
2017-12-18 04:00,43.179698944,-70.426681519,43.18,-70.43
2017-12-18 05:00,43.179683685,-70.426651001,43.18,-70.43
2017-12-18 06:00,43.179683685,-70.426651001,43.18,-70.43
2017-12-18 07:00,43.179668427,-70.426612854,43.18,-70.43
2017-12-18 08:00,43.179718018,-70.426612854,43.18,-70.43
2017-12-18 09:00,43.179748535,-70.426635742,43.18,-70.43
2017-12-18 11:00,43.179748535,-70.426651001,43.18,-70.43
2017-12-18 12:00,43.179767609,-70.426666260,43.18,-70.43
2017-12-18 13:00,,,,
2017-12-18 14:00,43.179832458,-70.426551819,43.18,-70.43
2017-12-18 15:00,43.179832458,-70.426551819,43.18,-70.43
2017-12-18 16:00,43.179817200,-70.426597595,43.18,-70.43
2017-12-18 17:00,43.179782867,-70.426612854,43.18,-70.43
2017-12-18 18:00,43.179782867,-70.426597595,43.18,-70.43
2017-12-18 19:00,43.179782867,-70.426567078,43.18,-70.43
2017-12-18 20:00,43.179817200,-70.426567078,43.18,-70.43
2017-12-18 21:00,43.179817200,-70.426567078,43.18,-70.43
2017-12-18 22:00,43.179817200,-70.426536560,43.18,-70.43
2017-12-18 23:00,43.179882050,-70.426536560,43.18,-70.43
2017-12-19 00:00,43.179882050,-70.426567078,43.18,-70.43
2017-12-19 01:00,43.179882050,-70.426567078,43.18,-70.43
2017-12-19 02:00,43.179866791,-70.426567078,43.18,-70.43
2017-12-19 03:00,43.179866791,-70.426582336,43.18,-70.43
2017-12-19 04:00,43.179866791,-70.426536560,43.18,-70.43
2017-12-19 05:00,43.179798126,-70.426551819,43.18,-70.43
2017-12-19 06:00,43.179851532,-70.426551819,43.18,-70.43
2017-12-19 07:00,43.179817200,-70.426567078,43.18,-70.43
2017-12-19 08:00,43.179817200,-70.426536560,43.18,-70.43
2017-12-19 09:00,43.179882050,-70.426567078,43.18,-70.43
2017-12-19 10:00,43.179916382,-70.426567078,43.18,-70.43
2017-12-19 11:00,43.179882050,-70.426582336,43.18,-70.43
2017-12-19 12:00,43.179882050,-70.426597595,43.18,-70.43
2017-12-19 13:00,43.179916382,-70.426513672,43.18,-70.43
2017-12-19 14:00,43.179901123,-70.426567078,43.18,-70.43
2017-12-19 15:00,43.179950714,-70.426551819,43.18,-70.43
2017-12-19 16:00,43.179916382,-70.426567078,43.18,-70.43
2017-12-19 17:00,43.179901123,-70.426483154,43.18,-70.43
2017-12-19 18:00,43.179882050,-70.426483154,43.18,-70.43
2017-12-19 19:00,43.179901123,-70.426483154,43.18,-70.43
2017-12-19 20:00,43.179916382,-70.426567078,43.18,-70.43
2017-12-19 21:00,43.179985046,-70.426551819,43.18,-70.43
2017-12-19 22:00,43.179950714,-70.426551819,43.18,-70.43
2017-12-19 23:00,43.180034637,-70.426536560,43.18,-70.43
2017-12-20 00:00,43.180049896,-70.426567078,43.18,-70.43
2017-12-20 01:00,43.180065155,-70.426536560,43.18,-70.43
2017-12-20 02:00,43.179985046,-70.426551819,43.18,-70.43
2017-12-20 03:00,43.179931641,-70.426597595,43.18,-70.43
2017-12-20 04:00,,,,
2017-12-20 05:00,43.179832458,-70.426483154,43.18,-70.43
2017-12-20 06:00,43.179832458,-70.426483154,43.18,-70.43
2017-12-20 07:00,43.179832458,-70.426452637,43.18,-70.43
2017-12-20 08:00,43.179851532,-70.426452637,43.18,-70.43
2017-12-20 09:00,43.179931641,-70.426452637,43.18,-70.43
2017-12-20 10:00,43.179882050,-70.426399231,43.18,-70.43
2017-12-20 11:00,43.179931641,-70.426452637,43.18,-70.43
2017-12-20 12:00,43.179916382,-70.426483154,43.17,-70.42
2017-12-20 13:00,,,,
2017-12-20 14:00,43.179916382,-70.426452637,43.18,-70.43
2017-12-20 15:00,43.179782867,-70.426467896,43.18,-70.43
2017-12-20 16:00,43.179698944,-70.426414490,43.18,-70.43
2017-12-20 17:00,43.179683685,-70.426414490,43.18,-70.43
2017-12-20 18:00,43.179649353,-70.426399231,43.18,-70.43
2017-12-20 19:00,43.179634094,-70.426452637,43.18,-70.43
2017-12-20 20:00,43.179634094,-70.426513672,43.18,-70.43
2017-12-20 21:00,43.179698944,-70.426536560,43.18,-70.43
2017-12-20 22:00,43.179683685,-70.426483154,43.18,-70.43
2017-12-20 23:00,43.179698944,-70.426483154,43.18,-70.43
2017-12-21 00:00,,,,
2017-12-21 01:00,43.179649353,-70.426467896,43.18,-70.43
2017-12-21 02:00,43.179668427,-70.426452637,43.18,-70.43
2017-12-21 03:00,43.179718018,-70.426513672,43.18,-70.43
2017-12-21 05:00,43.179698944,-70.426483154,43.18,-70.43
2017-12-21 06:00,43.179733276,-70.426483154,43.18,-70.43
2017-12-21 07:00,43.179683685,-70.426498413,43.18,-70.43
2017-12-21 08:00,43.179634094,-70.426399231,43.18,-70.43
2017-12-21 09:00,,,,
2017-12-21 10:00,43.179599762,-70.426383972,43.18,-70.43
2017-12-21 11:00,43.179565430,-70.426414490,43.18,-70.43
2017-12-21 12:00,43.179565430,-70.426483154,43.18,-70.43
2017-12-21 13:00,43.179599762,-70.426551819,43.18,-70.43
2017-12-21 14:00,43.179599762,-70.426536560,43.18,-70.43
2017-12-21 15:00,43.179615021,-70.426567078,43.18,-70.43
2017-12-21 16:00,43.179599762,-70.426597595,43.18,-70.43
2017-12-21 17:00,43.179634094,-70.426582336,43.18,-70.43
2017-12-21 18:00,43.179649353,-70.426597595,43.18,-70.43
2017-12-21 19:00,43.179649353,-70.426567078,43.18,-70.43
2017-12-21 20:00,43.179668427,-70.426582336,43.18,-70.43
2017-12-21 21:00,43.179668427,-70.426498413,43.18,-70.43
2017-12-21 22:00,43.179634094,-70.426414490,43.18,-70.43
2017-12-21 23:00,43.179683685,-70.426399231,43.18,-70.43
2017-12-22 00:00,43.179668427,-70.426399231,43.18,-70.43
2017-12-22 01:00,43.179565430,-70.426467896,43.18,-70.43
2017-12-22 02:00,43.179649353,-70.426498413,43.18,-70.43
2017-12-22 03:00,43.179634094,-70.426551819,43.18,-70.43
2017-12-22 04:00,43.179649353,-70.426582336,43.18,-70.43
2017-12-22 05:00,43.179634094,-70.426612854,43.18,-70.43
2017-12-22 06:00,43.179668427,-70.426612854,43.18,-70.43
2017-12-22 07:00,43.179683685,-70.426651001,43.18,-70.43
2017-12-22 08:00,43.179668427,-70.426635742,43.18,-70.43
2017-12-22 09:00,43.179649353,-70.426567078,43.18,-70.43
2017-12-22 10:00,43.179649353,-70.426567078,43.18,-70.43
2017-12-22 11:00,43.179634094,-70.426612854,43.18,-70.43
2017-12-22 12:00,43.179649353,-70.426582336,43.18,-70.43
2017-12-22 13:00,43.179683685,-70.426612854,43.18,-70.43
2017-12-22 14:00,43.179649353,-70.426582336,43.18,-70.43
2017-12-22 15:00,43.179649353,-70.426612854,43.18,-70.43
2017-12-22 16:00,43.179683685,-70.426765442,43.18,-70.43
2017-12-22 17:00,43.179683685,-70.426765442,43.18,-70.43
2017-12-22 18:00,43.179668427,-70.426734924,43.18,-70.43
2017-12-22 19:00,43.179668427,-70.426750183,43.18,-70.43
2017-12-22 20:00,43.179668427,-70.426864624,43.18,-70.43
2017-12-22 21:00,43.179683685,-70.426918030,43.18,-70.43
2017-12-22 22:00,43.179698944,-70.426879883,43.18,-70.43
2017-12-22 23:00,43.179748535,-70.426918030,43.18,-70.43
2017-12-23 00:00,43.179767609,-70.426918030,43.18,-70.43
2017-12-23 01:00,43.179767609,-70.426918030,43.18,-70.43
2017-12-23 03:00,43.179748535,-70.426918030,43.18,-70.43
2017-12-23 04:00,43.179698944,-70.426864624,43.18,-70.43
2017-12-23 05:00,43.179500580,-70.426719666,43.18,-70.43
2017-12-23 06:00,,,,
2017-12-23 07:00,43.179450989,-70.426864624,43.18,-70.43
2017-12-23 08:00,43.179431915,-70.426849365,43.18,-70.43
2017-12-23 09:00,43.179450989,-70.426849365,43.18,-70.43
2017-12-23 10:00,43.179450989,-70.426849365,43.18,-70.43
2017-12-23 11:00,43.179416656,-70.426864624,43.18,-70.43
2017-12-23 12:00,43.179450989,-70.426849365,43.18,-70.43
2017-12-23 13:00,43.179466248,-70.426902771,43.18,-70.43
2017-12-23 14:00,43.179481506,-70.426918030,43.18,-70.43
2017-12-23 15:00,,,,
2017-12-23 16:00,43.179481506,-70.426963806,43.18,-70.43
2017-12-23 19:00,,,,
2017-12-23 20:00,,,,
2017-12-23 21:00,43.179500580,-70.426963806,43.18,-70.43
2017-12-23 23:00,43.179500580,-70.426818848,43.18,-70.43
2017-12-24 00:00,43.179584503,-70.426780701,43.18,-70.43
2017-12-24 01:00,43.179599762,-70.426696777,43.18,-70.43
2017-12-24 03:00,43.179798126,-70.426582336,43.18,-70.43
2017-12-24 04:00,43.179718018,-70.426551819,43.18,-70.43
2017-12-24 05:00,43.179634094,-70.426551819,43.18,-70.43
2017-12-24 06:00,43.179599762,-70.426536560,43.18,-70.43
2017-12-24 07:00,43.179550171,-70.426567078,43.18,-70.43
2017-12-24 09:00,43.179515839,-70.426513672,43.18,-70.43
2017-12-24 10:00,43.179550171,-70.426498413,43.18,-70.43
2017-12-24 11:00,43.179534912,-70.426567078,43.18,-70.43
2017-12-24 12:00,43.179534912,-70.426567078,43.18,-70.43
2017-12-24 13:00,43.179565430,-70.426612854,43.18,-70.43
2017-12-24 14:00,43.179550171,-70.426612854,43.18,-70.43
2017-12-24 15:00,43.179599762,-70.426612854,43.18,-70.43
2017-12-24 16:00,43.179584503,-70.426666260,43.18,-70.43
2017-12-24 17:00,43.179565430,-70.426651001,43.18,-70.43
2017-12-24 18:00,43.179599762,-70.426719666,43.18,-70.43
2017-12-24 19:00,43.179584503,-70.426734924,43.18,-70.43
2017-12-24 20:00,43.179599762,-70.426765442,43.18,-70.43
2017-12-24 21:00,43.179748535,-70.427352905,43.18,-70.43
2017-12-24 22:00,43.179584503,-70.426780701,43.18,-70.43
2017-12-24 23:00,43.179534912,-70.426818848,43.18,-70.43
2017-12-25 00:00,,,,
2017-12-25 01:00,43.179500580,-70.426933289,43.18,-70.43
2017-12-25 02:00,43.179584503,-70.426986694,43.18,-70.43
2017-12-25 03:00,43.179565430,-70.427032471,43.18,-70.43
2017-12-25 04:00,43.179550171,-70.427131653,43.18,-70.43
2017-12-25 05:00,43.179584503,-70.427146912,43.18,-70.43
2017-12-25 06:00,43.179634094,-70.427169800,43.18,-70.43
2017-12-25 07:00,43.179431915,-70.427413940,43.18,-70.43
2017-12-25 08:00,43.179481506,-70.427597046,43.18,-70.43
2017-12-25 09:00,43.179351807,-70.427452087,43.18,-70.43
2017-12-25 10:00,43.179248810,-70.427368164,43.18,-70.43
2017-12-25 11:00,43.179218292,-70.427368164,43.18,-70.43
2017-12-25 12:00,43.179199219,-70.427330017,43.18,-70.43
2017-12-25 13:00,43.179183960,-70.427253723,43.18,-70.43
2017-12-25 14:00,43.179134369,-70.427146912,43.18,-70.43
2017-12-25 15:00,43.179100037,-70.427085876,43.18,-70.43
2017-12-25 16:00,43.179115295,-70.426734924,43.18,-70.43
2017-12-25 17:00,43.179199219,-70.426902771,43.18,-70.43
2017-12-25 18:00,43.179267883,-70.426635742,43.18,-70.43
2017-12-25 19:00,43.179317474,-70.426597595,43.18,-70.43
2017-12-25 20:00,43.179466248,-70.426597595,43.18,-70.43
2017-12-25 21:00,43.179450989,-70.426498413,43.18,-70.43
2017-12-25 22:00,43.179466248,-70.426429749,43.18,-70.43
2017-12-25 23:00,43.179500580,-70.426429749,43.18,-70.43
2017-12-26 00:00,,,,
2017-12-26 01:00,,,,
2017-12-26 02:00,,,,
2017-12-26 03:00,43.179565430,-70.426368713,43.18,-70.43
2017-12-26 04:00,,,,
2017-12-26 05:00,43.179584503,-70.426399231,43.18,-70.43
2017-12-26 06:00,43.179634094,-70.426414490,43.18,-70.43
2017-12-26 07:00,,,,
2017-12-26 08:00,43.179599762,-70.426452637,43.18,-70.43
2017-12-26 09:00,43.179565430,-70.426414490,43.18,-70.43
2017-12-26 10:00,43.179550171,-70.426414490,43.18,-70.43
2017-12-26 11:00,43.179565430,-70.426429749,43.18,-70.43
2017-12-26 12:00,43.179599762,-70.426452637,43.18,-70.43
2017-12-26 13:00,,,,
2017-12-26 14:00,43.179550171,-70.426383972,43.18,-70.43
2017-12-26 15:00,43.179534912,-70.426399231,43.18,-70.43
2017-12-26 16:00,43.179500580,-70.426452637,43.18,-70.43
2017-12-26 18:00,43.179634094,-70.426414490,43.18,-70.43
2017-12-26 19:00,43.179615021,-70.426498413,43.18,-70.43
2017-12-26 20:00,43.179615021,-70.426513672,43.18,-70.43
2017-12-26 21:00,43.179649353,-70.426498413,43.18,-70.43
2017-12-26 22:00,43.179584503,-70.426483154,43.18,-70.43
2017-12-26 23:00,43.179584503,-70.426467896,43.18,-70.43
2017-12-27 00:00,43.179565430,-70.426414490,43.18,-70.43
2017-12-27 01:00,43.179584503,-70.426467896,43.18,-70.43
2017-12-27 02:00,43.179634094,-70.426414490,43.18,-70.43
2017-12-27 03:00,43.179615021,-70.426452637,43.18,-70.43
2017-12-27 04:00,,,,
2017-12-27 05:00,43.179615021,-70.426483154,43.18,-70.43
2017-12-27 06:00,43.179698944,-70.426498413,43.18,-70.43
2017-12-27 07:00,43.179584503,-70.426467896,43.18,-70.43
2017-12-27 08:00,,,,
2017-12-27 09:00,,,,
2017-12-27 10:00,43.179550171,-70.426414490,43.18,-70.43
2017-12-27 11:00,43.179515839,-70.426483154,43.18,-70.43
2017-12-27 12:00,,,,
2017-12-27 13:00,43.179565430,-70.426452637,43.18,-70.43
2017-12-27 14:00,43.179565430,-70.426452637,43.18,-70.43
2017-12-27 15:00,43.179565430,-70.426452637,43.18,-70.43
2017-12-27 16:00,43.179500580,-70.426467896,43.18,-70.43
2017-12-27 17:00,43.179534912,-70.426452637,43.18,-70.43
2017-12-27 18:00,43.179584503,-70.426498413,43.18,-70.43
2017-12-27 19:00,43.179500580,-70.426452637,43.18,-70.43
2017-12-27 20:00,43.179500580,-70.426483154,43.18,-70.43
2017-12-27 21:00,43.179534912,-70.426483154,43.18,-70.43
2017-12-27 22:00,43.179565430,-70.426536560,43.18,-70.43
2017-12-27 23:00,,,,
2017-12-28 00:00,43.179481506,-70.426414490,43.18,-70.43
2017-12-28 01:00,43.179500580,-70.426368713,43.18,-70.43
2017-12-28 02:00,43.179550171,-70.426429749,43.18,-70.43
2017-12-28 03:00,43.179481506,-70.426383972,43.18,-70.43
2017-12-28 04:00,43.179431915,-70.426429749,43.18,-70.43
2017-12-28 05:00,43.179500580,-70.426498413,43.18,-70.43
2017-12-28 06:00,43.179550171,-70.426429749,43.18,-70.43
2017-12-28 07:00,43.179550171,-70.426429749,43.18,-70.43
2017-12-28 08:00,43.179565430,-70.426452637,43.18,-70.43
2017-12-28 09:00,43.179550171,-70.426414490,43.18,-70.43
2017-12-28 10:00,43.179466248,-70.426429749,43.18,-70.43
2017-12-28 11:00,,,,
2017-12-28 12:00,43.179500580,-70.426414490,43.18,-70.43
2017-12-28 13:00,43.179466248,-70.426383972,43.18,-70.43
2017-12-28 14:00,43.179416656,-70.426383972,43.18,-70.43
2017-12-28 15:00,43.179481506,-70.426429749,43.18,-70.43
2017-12-28 16:00,43.179382324,-70.426429749,43.18,-70.43
2017-12-28 17:00,43.179332733,-70.426414490,43.18,-70.43
2017-12-28 18:00,43.179351807,-70.426399231,43.18,-70.43
2017-12-28 19:00,43.179382324,-70.426483154,43.18,-70.43
2017-12-28 20:00,43.179332733,-70.426452637,43.18,-70.43
2017-12-28 21:00,43.179367065,-70.426452637,43.18,-70.43
2017-12-28 22:00,43.179367065,-70.426536560,43.18,-70.43
2017-12-28 23:00,43.179332733,-70.426513672,43.18,-70.43
2017-12-29 00:00,43.179298401,-70.426536560,43.18,-70.43
2017-12-29 01:00,43.179298401,-70.426582336,43.18,-70.43
2017-12-29 02:00,43.179298401,-70.426567078,43.18,-70.43